contact:dominique.lefevre@mio.osupytheas.fr, maurice.libes@osupytheas.fr, didier.mallarino@osupytheas.fr
Project:EMSO http://www.emso-fr.org/EMSO-France
Depth: 2436.0 m
Title:EMSO Ligure Ouest : Data MII capteur CSTAR
DateTime,Latitude,Longitude,Instrument_Serial,Reference_Counts,Signal_Counts,Corrected_Signal_raw_counts,Calculated_Beam_c_inverse_meters,Internal_thermistor_counts
DateTime,Latitude,Longitude,Instrument_Serial,Reference_Counts,Signal_Counts,Corrected_Signal_raw_counts,Calculated_Beam_c_inverse_meters,Internal_thermistor_counts
2022-03-08T00:00:49,42.805,6.029,CST-1368DR,4860,5835,12814,0.791,551
2022-03-08T00:03:51,42.805,6.029,CST-1368DR,4860,5843,12832,0.785,551
2022-03-08T00:06:53,42.805,6.029,CST-1368DR,4860,5843,12831,0.786,551
2022-03-08T00:09:54,42.805,6.029,CST-1368DR,4860,5844,12834,0.785,551
2022-03-08T00:12:56,42.805,6.029,CST-1368DR,4860,5840,12825,0.788,551
2022-03-08T00:15:57,42.805,6.029,CST-1368DR,4860,5842,12830,0.786,551
2022-03-08T00:18:59,42.805,6.029,CST-1368DR,4860,5844,12834,0.785,551
2022-03-08T00:22:00,42.805,6.029,CST-1368DR,4860,5842,12830,0.786,551
2022-03-08T00:25:02,42.805,6.029,CST-1368DR,4860,5844,12835,0.784,551
2022-03-08T00:28:04,42.805,6.029,CST-1368DR,4860,5842,12830,0.786,551
2022-03-08T00:31:05,42.805,6.029,CST-1368DR,4860,5841,12827,0.787,551
2022-03-08T00:34:07,42.805,6.029,CST-1368DR,4860,5840,12826,0.787,551
2022-03-08T00:37:08,42.805,6.029,CST-1368DR,4860,5839,12823,0.788,551
2022-03-08T00:40:10,42.805,6.029,CST-1368DR,4860,5840,12825,0.788,551
2022-03-08T00:43:11,42.805,6.029,CST-1368DR,4860,5843,12832,0.785,551
2022-03-08T00:46:13,42.805,6.029,CST-1368DR,4860,5844,12834,0.785,551
2022-03-08T00:49:15,42.805,6.029,CST-1368DR,4860,5840,12825,0.788,551
2022-03-08T00:52:16,42.805,6.029,CST-1368DR,4860,5846,12838,0.784,551
2022-03-08T00:55:18,42.805,6.029,CST-1368DR,4860,5843,12833,0.785,551
2022-03-08T00:58:19,42.805,6.029,CST-1368DR,4860,5842,12831,0.786,551
2022-03-08T01:01:21,42.805,6.029,CST-1368DR,4860,5840,12826,0.787,551
2022-03-08T01:04:23,42.805,6.029,CST-1368DR,4860,5842,12830,0.786,551
2022-03-08T01:07:24,42.805,6.029,CST-1368DR,4860,5839,12824,0.788,551
2022-03-08T01:10:26,42.805,6.029,CST-1368DR,4860,5843,12832,0.785,551
2022-03-08T01:13:27,42.805,6.029,CST-1368DR,4860,5841,12827,0.787,551
2022-03-08T01:16:29,42.805,6.029,CST-1368DR,4860,5841,12829,0.786,551
2022-03-08T01:19:30,42.805,6.029,CST-1368DR,4860,5843,12832,0.785,551
2022-03-08T01:22:32,42.805,6.029,CST-1368DR,4860,5843,12832,0.785,551
2022-03-08T01:25:34,42.805,6.029,CST-1368DR,4860,5841,12827,0.787,551
2022-03-08T01:28:35,42.805,6.029,CST-1368DR,4860,5840,12826,0.787,551
2022-03-08T01:31:37,42.805,6.029,CST-1368DR,4860,5842,12830,0.786,551
2022-03-08T01:34:38,42.805,6.029,CST-1368DR,4860,5845,12837,0.784,551
2022-03-08T01:37:40,42.805,6.029,CST-1368DR,4860,5844,12835,0.784,551
2022-03-08T01:40:41,42.805,6.029,CST-1368DR,4860,5846,12839,0.783,551
2022-03-08T01:43:43,42.805,6.029,CST-1368DR,4860,5845,12837,0.784,551
2022-03-08T01:46:45,42.805,6.029,CST-1368DR,4860,5840,12825,0.788,551
2022-03-08T01:49:46,42.805,6.029,CST-1368DR,4860,5841,12827,0.787,551
2022-03-08T01:52:48,42.805,6.029,CST-1368DR,4860,5841,12827,0.787,551
2022-03-08T01:55:49,42.805,6.029,CST-1368DR,4860,5844,12835,0.784,551
2022-03-08T01:58:51,42.805,6.029,CST-1368DR,4860,5838,12820,0.789,551
2022-03-08T02:01:53,42.805,6.029,CST-1368DR,4860,5840,12825,0.788,551
2022-03-08T02:04:54,42.805,6.029,CST-1368DR,4860,5839,12823,0.788,551
2022-03-08T02:07:56,42.805,6.029,CST-1368DR,4860,5839,12823,0.788,551
2022-03-08T02:10:57,42.805,6.029,CST-1368DR,4860,5840,12825,0.788,551
2022-03-08T02:13:59,42.805,6.029,CST-1368DR,4860,5842,12830,0.786,551
2022-03-08T02:17:00,42.805,6.029,CST-1368DR,4860,5840,12825,0.788,551
2022-03-08T02:20:02,42.805,6.029,CST-1368DR,4860,5841,12827,0.787,551
2022-03-08T02:23:04,42.805,6.029,CST-1368DR,4860,5841,12827,0.787,551
2022-03-08T02:26:05,42.805,6.029,CST-1368DR,4860,5841,12827,0.787,551
2022-03-08T02:29:07,42.805,6.029,CST-1368DR,4860,5839,12824,0.788,551
2022-03-08T02:32:08,42.805,6.029,CST-1368DR,4860,5839,12824,0.788,551
2022-03-08T02:35:10,42.805,6.029,CST-1368DR,4860,5850,12847,0.781,551
2022-03-08T02:38:12,42.805,6.029,CST-1368DR,4860,5842,12830,0.786,551
2022-03-08T02:41:13,42.805,6.029,CST-1368DR,4860,5836,12816,0.790,551
2022-03-08T02:44:15,42.805,6.029,CST-1368DR,4860,5836,12817,0.790,551
2022-03-08T02:47:16,42.805,6.029,CST-1368DR,4860,5837,12819,0.789,551
2022-03-08T02:50:18,42.805,6.029,CST-1368DR,4860,5838,12821,0.789,551
2022-03-08T02:53:19,42.805,6.029,CST-1368DR,4860,5837,12820,0.789,551
2022-03-08T02:56:21,42.805,6.029,CST-1368DR,4860,5834,12813,0.791,551
2022-03-08T02:59:23,42.805,6.029,CST-1368DR,4860,5836,12818,0.790,551
2022-03-08T03:02:24,42.805,6.029,CST-1368DR,4860,5836,12818,0.790,551
2022-03-08T03:05:26,42.805,6.029,CST-1368DR,4860,5837,12820,0.789,551
2022-03-08T03:08:27,42.805,6.029,CST-1368DR,4860,5838,12821,0.789,551
2022-03-08T03:11:29,42.805,6.029,CST-1368DR,4860,5837,12819,0.789,551
2022-03-08T03:14:30,42.805,6.029,CST-1368DR,4860,5836,12818,0.790,551
2022-03-08T03:17:32,42.805,6.029,CST-1368DR,4860,5837,12818,0.790,551
2022-03-08T03:20:34,42.805,6.029,CST-1368DR,4860,5837,12819,0.789,551
2022-03-08T03:23:35,42.805,6.029,CST-1368DR,4860,5837,12819,0.789,551
2022-03-08T03:26:37,42.805,6.029,CST-1368DR,4860,5835,12815,0.791,551
2022-03-08T03:29:38,42.805,6.029,CST-1368DR,4860,5834,12812,0.792,551
2022-03-08T03:32:40,42.805,6.029,CST-1368DR,4860,5836,12816,0.790,551
2022-03-08T03:35:42,42.805,6.029,CST-1368DR,4860,5835,12815,0.791,551
2022-03-08T03:38:43,42.805,6.029,CST-1368DR,4860,5834,12813,0.791,551
2022-03-08T03:41:45,42.805,6.029,CST-1368DR,4860,5835,12815,0.791,551
2022-03-08T03:44:46,42.805,6.029,CST-1368DR,4860,5836,12817,0.790,551
2022-03-08T03:47:48,42.805,6.029,CST-1368DR,4860,5838,12821,0.789,551
2022-03-08T03:50:49,42.805,6.029,CST-1368DR,4860,5837,12819,0.789,551
2022-03-08T03:53:51,42.805,6.029,CST-1368DR,4860,5839,12824,0.788,551
2022-03-08T03:56:53,42.805,6.029,CST-1368DR,4860,5835,12815,0.791,551
2022-03-08T03:59:54,42.805,6.029,CST-1368DR,4860,5834,12813,0.791,551
2022-03-08T04:02:56,42.805,6.029,CST-1368DR,4860,5835,12814,0.791,551
2022-03-08T04:05:57,42.805,6.029,CST-1368DR,4860,5836,12818,0.790,551
2022-03-08T04:08:59,42.805,6.029,CST-1368DR,4860,5834,12812,0.792,551
2022-03-08T04:12:00,42.805,6.029,CST-1368DR,4860,5834,12812,0.792,551
2022-03-08T04:15:02,42.805,6.029,CST-1368DR,4860,5832,12808,0.793,551
2022-03-08T04:18:04,42.805,6.029,CST-1368DR,4860,5833,12810,0.792,551
2022-03-08T04:21:05,42.805,6.029,CST-1368DR,4860,5835,12814,0.791,551
2022-03-08T04:24:07,42.805,6.029,CST-1368DR,4860,5827,12796,0.797,551
2022-03-08T04:27:08,42.805,6.029,CST-1368DR,4860,5832,12809,0.793,551
2022-03-08T04:30:10,42.805,6.029,CST-1368DR,4860,5831,12806,0.794,551
2022-03-08T04:33:12,42.805,6.029,CST-1368DR,4860,5830,12803,0.794,551
2022-03-08T04:36:13,42.805,6.029,CST-1368DR,4860,5829,12802,0.795,551
2022-03-08T04:39:15,42.805,6.029,CST-1368DR,4860,5829,12802,0.795,551
2022-03-08T04:42:16,42.805,6.029,CST-1368DR,4860,5831,12805,0.794,551
2022-03-08T04:45:18,42.805,6.029,CST-1368DR,4860,5827,12796,0.797,551
2022-03-08T04:48:19,42.805,6.029,CST-1368DR,4860,5831,12806,0.794,551
2022-03-08T04:51:21,42.805,6.029,CST-1368DR,4860,5825,12793,0.798,551
2022-03-08T04:54:23,42.805,6.029,CST-1368DR,4860,5841,12828,0.787,551
2022-03-08T04:57:24,42.805,6.029,CST-1368DR,4860,5828,12799,0.796,551
2022-03-08T05:00:26,42.805,6.029,CST-1368DR,4860,5831,12806,0.794,551
2022-03-08T05:03:27,42.805,6.029,CST-1368DR,4860,5830,12803,0.794,551
2022-03-08T05:06:29,42.805,6.029,CST-1368DR,4860,5825,12792,0.798,551
2022-03-08T05:09:31,42.805,6.029,CST-1368DR,4860,5824,12790,0.799,551
2022-03-08T05:12:32,42.805,6.029,CST-1368DR,4860,5827,12797,0.796,551
2022-03-08T05:15:34,42.805,6.029,CST-1368DR,4860,5827,12797,0.796,551
2022-03-08T05:18:35,42.805,6.029,CST-1368DR,4860,5825,12792,0.798,551
2022-03-08T05:21:37,42.805,6.029,CST-1368DR,4860,5827,12797,0.796,551
2022-03-08T05:24:38,42.805,6.029,CST-1368DR,4860,5827,12797,0.796,551
2022-03-08T05:27:40,42.805,6.029,CST-1368DR,4860,5830,12803,0.794,551
2022-03-08T05:30:42,42.805,6.029,CST-1368DR,4860,5829,12801,0.795,551
2022-03-08T05:33:43,42.805,6.029,CST-1368DR,4860,5826,12794,0.797,550
2022-03-08T05:36:45,42.805,6.029,CST-1368DR,4860,5824,12790,0.799,551
2022-03-08T05:39:46,42.805,6.029,CST-1368DR,4860,5827,12797,0.796,551
2022-03-08T05:42:48,42.805,6.029,CST-1368DR,4860,5828,12799,0.796,551
2022-03-08T05:45:49,42.805,6.029,CST-1368DR,4860,5830,12803,0.794,551
2022-03-08T05:48:51,42.805,6.029,CST-1368DR,4860,5829,12802,0.795,551
2022-03-08T05:51:53,42.805,6.029,CST-1368DR,4860,5822,12786,0.800,551
2022-03-08T05:54:54,42.805,6.029,CST-1368DR,4860,5822,12786,0.800,551
2022-03-08T05:57:56,42.805,6.029,CST-1368DR,4860,5825,12792,0.798,551
2022-03-08T06:00:57,42.805,6.029,CST-1368DR,4860,5822,12785,0.800,551
2022-03-08T06:03:59,42.805,6.029,CST-1368DR,4860,5822,12786,0.800,551
2022-03-08T06:07:01,42.805,6.029,CST-1368DR,4860,5822,12786,0.800,551
2022-03-08T06:10:02,42.805,6.029,CST-1368DR,4860,5826,12795,0.797,551
2022-03-08T06:13:04,42.805,6.029,CST-1368DR,4860,5826,12794,0.797,551
2022-03-08T06:16:05,42.805,6.029,CST-1368DR,4860,5823,12788,0.799,551
2022-03-08T06:19:07,42.805,6.029,CST-1368DR,4860,5825,12793,0.798,551
2022-03-08T06:22:08,42.805,6.029,CST-1368DR,4860,5826,12796,0.797,551
2022-03-08T06:25:10,42.805,6.029,CST-1368DR,4860,5821,12784,0.800,551
2022-03-08T06:28:12,42.805,6.029,CST-1368DR,4860,5821,12784,0.800,551
2022-03-08T06:31:13,42.805,6.029,CST-1368DR,4860,5820,12781,0.801,551
2022-03-08T06:34:15,42.805,6.029,CST-1368DR,4860,5817,12775,0.803,551
2022-03-08T06:37:16,42.805,6.029,CST-1368DR,4860,5826,12796,0.797,551
2022-03-08T06:40:18,42.805,6.029,CST-1368DR,4860,5819,12780,0.802,551
2022-03-08T06:43:20,42.805,6.029,CST-1368DR,4860,5826,12795,0.797,550
2022-03-08T06:46:21,42.805,6.029,CST-1368DR,4860,5822,12786,0.800,551
2022-03-08T06:49:23,42.805,6.029,CST-1368DR,4860,5821,12784,0.800,551
2022-03-08T06:52:24,42.805,6.029,CST-1368DR,4860,5809,12757,0.809,551
2022-03-08T06:55:26,42.805,6.029,CST-1368DR,4860,5826,12795,0.797,551
2022-03-08T06:58:27,42.805,6.029,CST-1368DR,4860,5817,12776,0.803,551
2022-03-08T07:01:29,42.805,6.029,CST-1368DR,4860,5819,12780,0.802,551
2022-03-08T07:04:31,42.805,6.029,CST-1368DR,4860,5819,12780,0.802,551
2022-03-08T07:07:32,42.805,6.029,CST-1368DR,4860,5822,12786,0.800,551
2022-03-08T07:10:34,42.805,6.029,CST-1368DR,4860,5818,12778,0.802,551
2022-03-08T07:13:35,42.805,6.029,CST-1368DR,4860,5821,12784,0.800,551
2022-03-08T07:16:37,42.805,6.029,CST-1368DR,4860,5829,12802,0.795,551
2022-03-08T07:19:38,42.805,6.029,CST-1368DR,4860,5824,12790,0.799,551
2022-03-08T07:22:40,42.805,6.029,CST-1368DR,4860,5819,12780,0.802,551
2022-03-08T07:25:42,42.805,6.029,CST-1368DR,4860,5824,12790,0.799,551
2022-03-08T07:28:43,42.805,6.029,CST-1368DR,4860,5820,12782,0.801,551
2022-03-08T07:31:45,42.805,6.029,CST-1368DR,4860,5818,12778,0.802,551
2022-03-08T07:34:46,42.805,6.029,CST-1368DR,4860,5887,12928,0.756,551
2022-03-08T07:37:48,42.805,6.029,CST-1368DR,4860,5888,12931,0.755,551
2022-03-08T07:40:50,42.805,6.029,CST-1368DR,4860,5896,12949,0.749,551
2022-03-08T07:43:51,42.805,6.029,CST-1368DR,4860,5895,12947,0.750,551
2022-03-08T07:46:53,42.805,6.029,CST-1368DR,4860,5894,12944,0.751,551
2022-03-08T07:49:54,42.805,6.029,CST-1368DR,4860,5893,12941,0.752,551
2022-03-08T07:52:56,42.805,6.029,CST-1368DR,4860,5894,12945,0.750,551
2022-03-08T07:55:57,42.805,6.029,CST-1368DR,4860,5892,12939,0.752,551
2022-03-08T07:58:59,42.805,6.029,CST-1368DR,4860,5896,12948,0.749,551
2022-03-08T08:02:01,42.805,6.029,CST-1368DR,4860,5893,12943,0.751,551
2022-03-08T08:05:02,42.805,6.029,CST-1368DR,4860,5894,12944,0.751,551
2022-03-08T08:08:04,42.805,6.029,CST-1368DR,4860,5894,12944,0.751,551
2022-03-08T08:11:05,42.805,6.029,CST-1368DR,4860,5893,12942,0.751,551
2022-03-08T08:14:07,42.805,6.029,CST-1368DR,4860,5893,12942,0.751,551
2022-03-08T08:17:08,42.805,6.029,CST-1368DR,4860,5894,12944,0.751,551
2022-03-08T08:20:10,42.805,6.029,CST-1368DR,4860,5887,12930,0.755,551
2022-03-08T08:23:12,42.805,6.029,CST-1368DR,4860,5890,12935,0.753,551
2022-03-08T08:26:13,42.805,6.029,CST-1368DR,4860,5891,12938,0.753,551
2022-03-08T08:29:15,42.805,6.029,CST-1368DR,4860,5882,12918,0.759,551
2022-03-08T08:32:16,42.805,6.029,CST-1368DR,4860,5880,12913,0.760,551
2022-03-08T08:35:18,42.805,6.029,CST-1368DR,4860,5870,12891,0.767,551
2022-03-08T08:38:20,42.805,6.029,CST-1368DR,4860,5873,12898,0.765,551
2022-03-08T08:41:21,42.805,6.029,CST-1368DR,4860,5869,12889,0.768,551
2022-03-08T08:44:23,42.805,6.029,CST-1368DR,4860,5870,12892,0.767,551
2022-03-08T08:47:24,42.805,6.029,CST-1368DR,4860,5868,12887,0.768,551
2022-03-08T08:50:26,42.805,6.029,CST-1368DR,4860,5873,12897,0.765,551
2022-03-08T08:53:27,42.805,6.029,CST-1368DR,4860,5866,12883,0.770,551
2022-03-08T08:56:29,42.805,6.029,CST-1368DR,4860,5867,12886,0.769,551
2022-03-08T08:59:31,42.805,6.029,CST-1368DR,4860,5863,12877,0.771,551
2022-03-08T09:02:32,42.805,6.029,CST-1368DR,4860,5864,12879,0.771,551
2022-03-08T09:05:34,42.805,6.029,CST-1368DR,4860,5863,12875,0.772,551
2022-03-08T09:08:35,42.805,6.029,CST-1368DR,4860,5860,12869,0.774,551
2022-03-08T09:11:37,42.805,6.029,CST-1368DR,4860,5854,12857,0.778,551
2022-03-08T09:14:39,42.805,6.029,CST-1368DR,4860,5855,12858,0.777,551
2022-03-08T09:17:40,42.805,6.029,CST-1368DR,4860,5855,12859,0.777,551
2022-03-08T09:20:42,42.805,6.029,CST-1368DR,4860,5853,12854,0.779,551
2022-03-08T09:23:43,42.805,6.029,CST-1368DR,4860,5850,12847,0.781,550
2022-03-08T09:26:45,42.805,6.029,CST-1368DR,4860,5850,12848,0.780,551
2022-03-08T09:29:46,42.805,6.029,CST-1368DR,4860,5849,12846,0.781,551
2022-03-08T09:32:48,42.805,6.029,CST-1368DR,4860,5848,12843,0.782,551
2022-03-08T09:35:50,42.805,6.029,CST-1368DR,4860,5856,12862,0.776,551
2022-03-08T09:38:51,42.805,6.029,CST-1368DR,4860,5850,12848,0.780,551
2022-03-08T09:41:53,42.805,6.029,CST-1368DR,4860,5849,12845,0.781,551
2022-03-08T09:44:54,42.805,6.029,CST-1368DR,4860,5847,12841,0.783,551
2022-03-08T09:47:56,42.805,6.029,CST-1368DR,4860,5856,12860,0.777,551
2022-03-08T09:50:57,42.805,6.029,CST-1368DR,4860,5849,12846,0.781,551
2022-03-08T09:53:59,42.805,6.029,CST-1368DR,4860,5852,12852,0.779,551
2022-03-08T09:57:01,42.805,6.029,CST-1368DR,4860,5851,12849,0.780,551
2022-03-08T10:00:02,42.805,6.029,CST-1368DR,4860,5846,12839,0.783,551
2022-03-08T10:03:04,42.805,6.029,CST-1368DR,4860,5845,12837,0.784,551
2022-03-08T10:06:05,42.805,6.029,CST-1368DR,4860,5852,12853,0.779,551
2022-03-08T10:09:07,42.805,6.029,CST-1368DR,4860,5846,12838,0.784,551
2022-03-08T10:12:09,42.805,6.029,CST-1368DR,4860,5844,12835,0.784,551
2022-03-08T10:15:10,42.805,6.029,CST-1368DR,4860,5852,12852,0.779,551
2022-03-08T10:18:12,42.805,6.029,CST-1368DR,4860,5851,12849,0.780,551
2022-03-08T10:21:13,42.805,6.029,CST-1368DR,4860,5848,12842,0.782,551
2022-03-08T10:24:15,42.805,6.029,CST-1368DR,4859,5805,12751,0.811,551
2022-03-08T10:27:16,42.805,6.029,CST-1368DR,4860,5846,12840,0.783,551
2022-03-08T10:30:18,42.805,6.029,CST-1368DR,4860,5846,12840,0.783,551
2022-03-08T10:33:20,42.805,6.029,CST-1368DR,4860,5850,12847,0.781,551
2022-03-08T10:36:21,42.805,6.029,CST-1368DR,4860,5845,12837,0.784,551
2022-03-08T10:39:23,42.805,6.029,CST-1368DR,4860,5850,12848,0.780,551
2022-03-08T10:42:24,42.805,6.029,CST-1368DR,4860,5854,12857,0.778,551
2022-03-08T10:45:26,42.805,6.029,CST-1368DR,4860,5840,12825,0.788,551
2022-03-08T10:48:28,42.805,6.029,CST-1368DR,4860,5844,12834,0.785,551
2022-03-08T10:51:29,42.805,6.029,CST-1368DR,4860,5849,12846,0.781,551
2022-03-08T10:54:31,42.805,6.029,CST-1368DR,4860,5849,12846,0.781,551
2022-03-08T10:57:32,42.805,6.029,CST-1368DR,4860,5839,12824,0.788,551
2022-03-08T11:00:34,42.805,6.029,CST-1368DR,4860,5853,12854,0.779,551
2022-03-08T11:03:35,42.805,6.029,CST-1368DR,4860,5843,12832,0.785,551
2022-03-08T11:06:37,42.805,6.029,CST-1368DR,4860,5847,12842,0.782,551
2022-03-08T11:09:39,42.805,6.029,CST-1368DR,4860,5842,12830,0.786,551
2022-03-08T11:12:40,42.805,6.029,CST-1368DR,4860,5840,12826,0.787,551
2022-03-08T11:15:42,42.805,6.029,CST-1368DR,4860,5840,12826,0.787,551
2022-03-08T11:18:43,42.805,6.029,CST-1368DR,4860,5847,12841,0.783,551
2022-03-08T11:21:45,42.805,6.029,CST-1368DR,4860,5848,12843,0.782,551
2022-03-08T11:24:46,42.805,6.029,CST-1368DR,4860,5842,12831,0.786,551
2022-03-08T11:27:48,42.805,6.029,CST-1368DR,4860,5845,12837,0.784,551
2022-03-08T11:30:50,42.805,6.029,CST-1368DR,4860,5846,12839,0.783,551
2022-03-08T11:33:51,42.805,6.029,CST-1368DR,4860,5851,12851,0.779,551
2022-03-08T11:36:53,42.805,6.029,CST-1368DR,4860,5849,12846,0.781,551
2022-03-08T11:39:54,42.805,6.029,CST-1368DR,4860,5847,12841,0.783,551
2022-03-08T11:42:56,42.805,6.029,CST-1368DR,4860,5852,12852,0.779,551
2022-03-08T11:45:58,42.805,6.029,CST-1368DR,4860,5840,12826,0.787,551
2022-03-08T11:48:59,42.805,6.029,CST-1368DR,4860,5843,12831,0.786,551
2022-03-08T11:52:01,42.805,6.029,CST-1368DR,4860,5841,12828,0.787,551
2022-03-08T11:55:02,42.805,6.029,CST-1368DR,4860,5847,12840,0.783,551
2022-03-08T11:58:04,42.805,6.029,CST-1368DR,4860,5841,12827,0.787,551
2022-03-08T12:01:05,42.805,6.029,CST-1368DR,4860,5840,12826,0.787,551
2022-03-08T12:04:07,42.805,6.029,CST-1368DR,4860,5844,12834,0.785,551
2022-03-08T12:07:09,42.805,6.029,CST-1368DR,4860,5843,12833,0.785,551
2022-03-08T12:10:10,42.805,6.029,CST-1368DR,4860,5847,12840,0.783,551
2022-03-08T12:13:12,42.805,6.029,CST-1368DR,4860,5842,12830,0.786,551
2022-03-08T12:16:13,42.805,6.029,CST-1368DR,4860,5838,12821,0.789,551
2022-03-08T12:19:15,42.805,6.029,CST-1368DR,4860,5845,12836,0.784,551
2022-03-08T12:22:16,42.805,6.029,CST-1368DR,4860,5849,12845,0.781,551
2022-03-08T12:25:18,42.805,6.029,CST-1368DR,4860,5842,12831,0.786,551
2022-03-08T12:28:20,42.805,6.029,CST-1368DR,4860,5844,12834,0.785,551
2022-03-08T12:31:21,42.805,6.029,CST-1368DR,4860,5842,12830,0.786,551
2022-03-08T12:34:23,42.805,6.029,CST-1368DR,4860,5846,12838,0.784,551
2022-03-08T12:37:24,42.805,6.029,CST-1368DR,4860,5847,12840,0.783,551
2022-03-08T12:40:26,42.805,6.029,CST-1368DR,4860,5840,12825,0.788,551
2022-03-08T12:43:28,42.805,6.029,CST-1368DR,4860,5844,12834,0.785,551
2022-03-08T12:46:29,42.805,6.029,CST-1368DR,4860,5837,12819,0.789,551
2022-03-08T12:49:31,42.805,6.029,CST-1368DR,4859,5836,12820,0.789,551
2022-03-08T12:52:32,42.805,6.029,CST-1368DR,4860,5842,12830,0.786,551
2022-03-08T12:55:34,42.805,6.029,CST-1368DR,4859,5839,12826,0.787,551
2022-03-08T12:58:35,42.805,6.029,CST-1368DR,4859,5831,12807,0.793,551
2022-03-08T13:01:37,42.805,6.029,CST-1368DR,4860,5843,12833,0.785,551
2022-03-08T13:04:39,42.805,6.029,CST-1368DR,4860,5845,12837,0.784,551
2022-03-08T13:07:40,42.805,6.029,CST-1368DR,4860,5839,12824,0.788,551
2022-03-08T13:10:42,42.805,6.029,CST-1368DR,4859,5849,12848,0.780,551
2022-03-08T13:13:43,42.805,6.029,CST-1368DR,4860,5847,12841,0.783,551
2022-03-08T13:16:45,42.805,6.029,CST-1368DR,4859,5839,12826,0.787,551
2022-03-08T13:19:46,42.805,6.029,CST-1368DR,4859,5835,12816,0.790,551
2022-03-08T13:22:48,42.805,6.029,CST-1368DR,4859,5831,12808,0.793,551
2022-03-08T13:25:50,42.805,6.029,CST-1368DR,4860,5834,12813,0.791,551
2022-03-08T13:28:51,42.805,6.029,CST-1368DR,4859,5843,12835,0.784,551
2022-03-08T13:31:53,42.805,6.029,CST-1368DR,4860,5853,12854,0.779,551
2022-03-08T13:34:54,42.805,6.029,CST-1368DR,4860,5853,12854,0.779,551
2022-03-08T13:37:56,42.805,6.029,CST-1368DR,4860,5853,12854,0.779,551
2022-03-08T13:40:58,42.805,6.029,CST-1368DR,4860,5851,12849,0.780,551
2022-03-08T13:43:59,42.805,6.029,CST-1368DR,4859,5851,12853,0.779,551
2022-03-08T13:47:01,42.805,6.029,CST-1368DR,4860,5857,12864,0.775,551
2022-03-08T13:50:02,42.805,6.029,CST-1368DR,4859,5850,12851,0.779,551
2022-03-08T13:53:04,42.805,6.029,CST-1368DR,4860,5856,12861,0.776,551
2022-03-08T13:56:05,42.805,6.029,CST-1368DR,4860,5856,12861,0.776,551
2022-03-08T13:59:07,42.805,6.029,CST-1368DR,4860,5855,12858,0.777,551
2022-03-08T14:02:09,42.805,6.029,CST-1368DR,4859,5839,12826,0.787,551
2022-03-08T14:05:10,42.805,6.029,CST-1368DR,4859,5839,12827,0.787,551
2022-03-08T14:08:12,42.805,6.029,CST-1368DR,4860,5855,12858,0.777,551
2022-03-08T14:11:13,42.805,6.029,CST-1368DR,4860,5851,12850,0.780,551
2022-03-08T14:14:15,42.805,6.029,CST-1368DR,4860,5857,12863,0.776,551
2022-03-08T14:17:17,42.805,6.029,CST-1368DR,4859,5840,12828,0.787,551
2022-03-08T14:20:18,42.805,6.029,CST-1368DR,4859,5837,12822,0.789,551
2022-03-08T14:23:20,42.805,6.029,CST-1368DR,4860,5856,12861,0.776,551
2022-03-08T14:26:21,42.805,6.029,CST-1368DR,4859,5830,12805,0.794,551
2022-03-08T14:29:23,42.805,6.029,CST-1368DR,4859,5834,12815,0.791,551
2022-03-08T14:32:24,42.805,6.029,CST-1368DR,4859,5833,12812,0.792,551
2022-03-08T14:35:26,42.805,6.029,CST-1368DR,4859,5846,12842,0.782,551
2022-03-08T14:38:28,42.805,6.029,CST-1368DR,4859,5844,12837,0.784,551
2022-03-08T14:41:29,42.805,6.029,CST-1368DR,4859,5844,12837,0.784,551
2022-03-08T14:44:31,42.805,6.029,CST-1368DR,4860,5854,12857,0.778,551
2022-03-08T14:47:32,42.805,6.029,CST-1368DR,4859,5840,12827,0.787,551
2022-03-08T14:50:34,42.805,6.029,CST-1368DR,4859,5833,12813,0.791,551
2022-03-08T14:53:35,42.805,6.029,CST-1368DR,4859,5837,12822,0.789,551
2022-03-08T14:56:37,42.805,6.029,CST-1368DR,4859,5840,12829,0.786,551
2022-03-08T14:59:39,42.805,6.029,CST-1368DR,4859,5836,12818,0.790,551
2022-03-08T15:02:40,42.805,6.029,CST-1368DR,4859,5846,12841,0.783,551
2022-03-08T15:05:42,42.805,6.029,CST-1368DR,4859,5840,12828,0.787,551
2022-03-08T15:08:43,42.805,6.029,CST-1368DR,4859,5839,12826,0.787,551
2022-03-08T15:11:45,42.805,6.029,CST-1368DR,4859,5838,12824,0.788,551
2022-03-08T15:14:47,42.805,6.029,CST-1368DR,4859,5841,12831,0.786,550
2022-03-08T15:17:48,42.805,6.029,CST-1368DR,4859,5844,12837,0.784,551
2022-03-08T15:20:50,42.805,6.029,CST-1368DR,4859,5840,12828,0.787,551
2022-03-08T15:23:51,42.805,6.029,CST-1368DR,4859,5840,12828,0.787,551
2022-03-08T15:26:53,42.805,6.029,CST-1368DR,4859,5833,12814,0.791,551
2022-03-08T15:29:54,42.805,6.029,CST-1368DR,4859,5833,12813,0.791,551
2022-03-08T15:32:56,42.805,6.029,CST-1368DR,4859,5842,12833,0.785,551
2022-03-08T15:35:58,42.805,6.029,CST-1368DR,4859,5855,12860,0.777,551
2022-03-08T15:38:59,42.805,6.029,CST-1368DR,4859,5835,12818,0.790,551
2022-03-08T15:42:01,42.805,6.029,CST-1368DR,4859,5849,12847,0.781,551
2022-03-08T15:45:02,42.805,6.029,CST-1368DR,4859,5830,12807,0.793,551
2022-03-08T15:48:04,42.805,6.029,CST-1368DR,4859,5844,12838,0.784,550
2022-03-08T15:51:06,42.805,6.029,CST-1368DR,4860,5855,12858,0.777,551
2022-03-08T15:54:07,42.805,6.029,CST-1368DR,4859,5846,12841,0.783,551
2022-03-08T15:57:09,42.805,6.029,CST-1368DR,4859,5839,12827,0.787,551
2022-03-08T16:00:10,42.805,6.029,CST-1368DR,4859,5837,12822,0.789,551
2022-03-08T16:03:12,42.805,6.029,CST-1368DR,4859,5849,12848,0.780,551
2022-03-08T16:06:13,42.805,6.029,CST-1368DR,4859,5844,12837,0.784,551
2022-03-08T16:09:15,42.805,6.029,CST-1368DR,4859,5847,12844,0.782,551
2022-03-08T16:12:17,42.805,6.029,CST-1368DR,4859,5853,12856,0.778,551
2022-03-08T16:15:18,42.805,6.029,CST-1368DR,4859,5849,12847,0.781,551
2022-03-08T16:18:20,42.805,6.029,CST-1368DR,4859,5845,12840,0.783,551
2022-03-08T16:21:21,42.805,6.029,CST-1368DR,4859,5846,12842,0.782,551
2022-03-08T16:24:23,42.805,6.029,CST-1368DR,4859,5845,12839,0.783,551
2022-03-08T16:27:25,42.805,6.029,CST-1368DR,4859,5846,12841,0.783,551
2022-03-08T16:30:26,42.805,6.029,CST-1368DR,4859,5850,12849,0.780,551
2022-03-08T16:33:28,42.805,6.029,CST-1368DR,4859,5844,12836,0.784,551
2022-03-08T16:36:29,42.805,6.029,CST-1368DR,4859,5838,12824,0.788,551
2022-03-08T16:39:31,42.805,6.029,CST-1368DR,4859,5841,12831,0.786,551
2022-03-08T16:42:32,42.805,6.029,CST-1368DR,4859,5848,12845,0.781,551
2022-03-08T16:45:34,42.805,6.029,CST-1368DR,4859,5834,12815,0.791,551
2022-03-08T16:48:36,42.805,6.029,CST-1368DR,4859,5851,12853,0.779,551
2022-03-08T16:51:37,42.805,6.029,CST-1368DR,4859,5841,12831,0.786,551